This demonstration page uses our WeatherBlox Daily Observations layout. Learn more.

Left ArrowRight Arrow

41.12389, -100.76542

Hourly Observations for December 14, 2017

Temp ( °F °C ) Dew Point ( °F °C ) Humidity (%) Winds ( mph kmh ) Pressure ( in mb ) Visibility ( mi km ) Precip ( " mm )
12:53 am 00:53 Mostly Cloudy 34 1.1 23 -5 64 64 NW 5 7 30.10 1019 10 16 0.00 0.00
1:53 am 01:53 Cloudy 33 0.6 23 -5 66 66 WNW 8 13 30.11 1020 10 16 0.00 0.00
2:53 am 02:53 Cloudy 37 2.8 24 -4.4 59 59 W 8 13 30.11 1020 10 16 0.00 0.00
3:53 am 03:53 Cloudy 37 2.8 25 -3.9 62 62 WNW 8 13 30.11 1020 10 16 0.00 0.00
4:53 am 04:53 Cloudy 37 2.8 26 -3.3 65 65 NW 10 17 30.11 1020 10 16 0.00 0.00
5:53 am 05:53 Cloudy 38 3.3 27 -2.8 65 65 WNW 10 17 30.11 1020 10 16 0.00 0.00
6:53 am 06:53 Cloudy 37 2.8 26 -3.3 65 65 WNW 9 15 30.13 1020 10 16 0.00 0.00
7:53 am 07:53 Cloudy 37 2.8 26 -3.3 65 65 WNW 8 13 30.13 1020 10 16 0.00 0.00
8:53 am 08:53 Cloudy 38 3.3 26 -3.3 62 62 W 9 15 30.13 1020 10 16 0.00 0.00
9:53 am 09:53 Cloudy 38 3.3 26 -3.3 62 62 W 10 17 30.15 1021 10 16 0.00 0.00
10:53 am 10:53 Cloudy 39 3.9 29 -1.7 67 67 NNW 24 39 30.18 1022 10 16 0.00 0.00
11:31 am 11:31 Cloudy 39 3.9 28 -2.2 65 65 NNW 23 37 30.18 1022 10 16 0.00 0.00
11:53 am 11:53 Cloudy 40 4.4 26 -3.3 58 58 NNW 25 41 30.17 1022 10 16 0.00 0.00
12:53 pm 12:53 Mostly Cloudy 39 3.9 25 -3.9 57 57 NNW 24 39 30.18 1022 10 16 0.00 0.00
1:53 pm 13:53 Mostly Cloudy 40 4.4 23 -5 51 51 NNW 25 41 30.17 1022 10 16 0.00 0.00
2:53 pm 14:53 Cloudy 39 3.9 23 -5 53 53 N 24 39 30.18 1022 10 16 0.00 0.00
3:53 pm 15:53 Cloudy 38 3.3 24 -4.4 57 57 NNW 17 28 30.20 1023 10 16 0.00 0.00
4:53 pm 16:53 Cloudy 37 2.8 25 -3.9 62 62 NNW 15 24 30.22 1023 10 16 0.00 0.03
5:53 pm 17:53 Cloudy 35 1.7 25 -3.9 67 67 NNW 15 24 30.24 1024 10 16 0.00 0.00
6:53 pm 18:53 Cloudy 34 1.1 25 -3.9 70 70 NNW 12 19 30.26 1025 10 16 0.00 0.00
7:53 pm 19:53 Cloudy 34 1.1 26 -3.3 73 73 NNW 9 15 30.27 1025 10 16 0.00 0.00
8:53 pm 20:53 Mostly Cloudy 33 0.6 25 -3.9 72 72 NNW 8 13 30.27 1025 10 16 0.00 0.00
9:53 pm 21:53 Mostly Cloudy 31 -0.6 24 -4.4 76 76 WNW 9 15 30.26 1025 10 16 0.00 0.00
10:53 pm 22:53 Mostly Clear 26 -3.3 22 -5.6 84 84 NNW 6 9 30.26 1025 10 16 0.00 0.00
11:53 pm 23:53 Clear 22 -5.6 19 -7.2 89 89 NNW 3 6 30.26 1025 10 16 0.00 0.00

Powered by AerisWeather